Regional Weather Roundup
Issued by NWS

Home | Current Version | Previous Version | Graphics & Text | Print | Product List | Glossary On
Versions: 1 2 3 4 5 6 7 8 9 10 11 12 13 14 15 16 17 18 19 20 21 22 23 24 25 26 27
000
ASUS45 KSLC 052010
RWRUT

UTAH REGIONAL WEATHER ROUNDUP
NATIONAL WEATHER SERVICE SALT LAKE CITY UT
200 PM MDT THU MAY 05 2016

UTZ001>011-023>025-052100-

NORTHERN UTAH

CITY           SKY/WX    TMP DP  RH WIND       PRES   REMARKS
BRIGHAM CITY   PTSUNNY   82  28  14 SE16      29.87F
HILL AFB       CLOUDY    79  37  22 VRB5      29.90F
LOGAN          PTSUNNY   75  42  30 N5        29.90F
OGDEN          CLOUDY    81  32  17 SE12G18   29.87F
PROVO AIRPORT  PTSUNNY   84  34  16 MISG      29.89F
SALT LAKE CITY CLOUDY    82  31  15 SE8       29.85F
VERNAL         CLOUDY    76  30  18 W5        30.04F
WENDOVER       PTSUNNY   73  39  29 E5        29.86F

$$

UTZ012>022-026-027-052100-

SOUTHERN/CENTRAL UTAH

CITY           SKY/WX    TMP DP  RH WIND       PRES   REMARKS
BLANDING       SUNNY     77  28  16 S16G23    30.13F
BRYCE CANYON   PTSUNNY   66  26  22 SE21G30   30.09F
CEDAR CITY     PTSUNNY   75  30  19 S24G37    29.92F
DELTA          CLOUDY    77  30  18 E3        29.89F
HANKSVILLE     PTSUNNY   82  28  14 S15G23    29.97F
MILFORD        CLOUDY    79  27  14 S24G39    29.87F
MOAB/CYNLANDS  MOSUNNY   83  30  14 CALM      29.95F
PRICE          CLOUDY    73  27  18 S10G20    30.06F
ST GEORGE      CLOUDY    88  25  10 SE15G28   29.79F

$$

REGIONAL REPORTS     COLORADO/ARIZONA

CITY           SKY/WX    TMP DP  RH WIND       PRES   REMARKS
CRAIG, CO      CLOUDY    75  30  19 W8        30.10F
GRAND JUNCTION CLOUDY    82  30  15 E6        30.00F
RIFLE          CLOUDY    78  23  13 VRB6      30.06F
MONTROSE       CLOUDY    79  25  13 NE8       30.08F
CORTEZ         SUNNY     80  29  15 SE15G24   30.08F
PAGE, AZ       PTSUNNY   87  26  11 SE18G32   29.89F
GRAND CANYON   MOSUNNY   72  22  15 S20G31    30.05F
KINGMAN        MOSUNNY   83  20   9 S18G35    29.85F
FLAGSTAFF      MOSUNNY   65  24  21 SW15G26   30.09F

$$

REGIONAL REPORTS    NEVADA/IDAHO/WYOMING

CITY           SKY/WX    TMP DP  RH WIND       PRES   REMARKS
LAS VEGAS, NV  PTSUNNY   84  19   9 SE13G29   29.73F
ELY            PTSUNNY   69  18  14 SE22G40   29.93F
ELKO           PTSUNNY   75  30  19 S22G28    29.82F
POCATELLO, ID  CLOUDY    81  31  16 S10       29.89F
BURLEY         PTSUNNY   75  49  39 E8        29.83F
EVANSTON, WY   CLOUDY    73  22  14 S13G25    30.08F
ROCK SPRINGS   CLOUDY    70  24  17 W9        30.11F
KEMMERER         N/A     72  19  14 SE6       30.12F

$$




USA.gov is the U.S. government's official web portal to all federal, state and local government web resources and services.